STAR ONE D2

Last updated on Wed Nov 20 2024 00:02:43 GMT+0000 (Coordinated Universal Time)

1 49055U 21069A 24323.38590953 -.00000261 00000+0 00000+0 0 9995 2 49055 0.0071 294.0328 0002731 277.4176 275.3062 1.00270532 12163
UTC large
Height (km)
Speed (km/s)
/
Latitude / Longitude
Inclination (degrees)
Orbital Period (minutes)
Azimuth
Elevation
Range (km)
Doppler Factor

Next 0 passes for location: London (51.5072 / 0.1276)

Sorry there are no passes over London.